TimeMST,TemperatureF,Dew PointF,Humidity,Sea Level PressureIn,VisibilityMPH,Wind Direction,Wind SpeedMPH,Gust SpeedMPH,PrecipitationIn,Events,Conditions,WindDirDegrees,DateUTC
12:15 AM,42.8,33.8,70,29.85,10.0,SE,4.6,-,N/A,,Clear,140,2013-02-24 07:15:00
12:35 AM,42.8,33.8,70,29.85,10.0,ESE,5.8,-,N/A,,Clear,120,2013-02-24 07:35:00
12:55 AM,42.8,33.8,70,29.85,10.0,SE,8.1,-,N/A,,Clear,130,2013-02-24 07:55:00
1:15 AM,42.8,35.6,76,29.85,10.0,SE,5.8,-,N/A,,Clear,140,2013-02-24 08:15:00
1:35 AM,42.8,33.8,70,29.85,10.0,SE,5.8,-,N/A,,Clear,130,2013-02-24 08:35:00
1:55 AM,44.6,35.6,71,29.86,10.0,NNW,8.1,-,N/A,,Clear,330,2013-02-24 08:55:00
2:15 AM,44.6,33.8,66,29.86,10.0,NNW,5.8,-,N/A,,Clear,330,2013-02-24 09:15:00
2:35 AM,50.0,30.2,47,29.85,10.0,North,11.5,-,N/A,,Clear,360,2013-02-24 09:35:00
2:55 AM,51.8,30.2,44,29.84,10.0,North,18.4,24.2,N/A,,Clear,360,2013-02-24 09:55:00
3:15 AM,51.8,28.4,41,29.84,10.0,North,17.3,26.5,N/A,,Clear,350,2013-02-24 10:15:00
3:35 AM,51.8,28.4,41,29.84,10.0,North,20.7,-,N/A,,Clear,350,2013-02-24 10:35:00
3:55 AM,50.0,26.6,40,29.85,10.0,North,26.5,29.9,N/A,,Clear,350,2013-02-24 10:55:00
4:15 AM,50.0,26.6,40,29.85,7.0,North,23.0,31.1,N/A,,Clear,350,2013-02-24 11:15:00
4:35 AM,50.0,28.4,43,29.85,10.0,North,19.6,33.4,N/A,,Clear,350,2013-02-24 11:35:00
4:55 AM,50.0,28.4,43,29.85,10.0,North,15.0,20.7,N/A,,Clear,350,2013-02-24 11:55:00
5:15 AM,50.0,28.4,43,29.85,10.0,North,11.5,-,N/A,,Clear,350,2013-02-24 12:15:00
5:47 AM,50.0,28.4,43,29.85,20.0,NNW,9.2,-,N/A,,Mostly Cloudy,340,2013-02-24 12:47:00
6:47 AM,46.4,28.4,50,29.88,20.0,West,13.8,-,N/A,,Mostly Cloudy,280,2013-02-24 13:47:00
7:47 AM,46.4,26.6,46,29.90,30.0,WNW,16.1,-,N/A,,Scattered Clouds,290,2013-02-24 14:47:00
8:47 AM,48.2,19.4,32,29.92,30.0,NW,13.8,23.0,N/A,,Scattered Clouds,310,2013-02-24 15:47:00
9:47 AM,53.6,21.2,28,29.94,30.0,WNW,16.1,23.0,N/A,,Scattered Clouds,300,2013-02-24 16:47:00
11:47 AM,53.6,14.0,21,29.96,30.0,NW,18.4,29.9,N/A,,Scattered Clouds,310,2013-02-24 18:47:00
12:47 PM,55.4,10.4,17,29.96,30.0,WNW,15.0,26.5,N/A,,Scattered Clouds,300,2013-02-24 19:47:00
1:47 PM,55.4,5.0,13,29.95,30.0,North,13.8,23.0,N/A,,Mostly Cloudy,350,2013-02-24 20:47:00
2:55 PM,57.2,6.8,13,29.96,30.0,NW,21.9,28.8,N/A,,Mostly Cloudy,320,2013-02-24 21:55:00
3:54 PM,55.4,5.0,13,29.97,35.0,North,15.0,25.3,N/A,,Mostly Cloudy,350,2013-02-24 22:54:00
4:50 PM,57.2,6.8,13,29.98,35.0,NNW,16.1,26.5,N/A,,Scattered Clouds,330,2013-02-24 23:50:00
5:52 PM,57.2,6.8,13,30.00,35.0,North,8.1,16.1,N/A,,Scattered Clouds,350,2013-02-25 00:52:00
6:50 PM,53.6,8.6,16,30.02,20.0,North,6.9,-,N/A,,Scattered Clouds,360,2013-02-25 01:50:00
7:47 PM,51.8,10.4,19,30.03,20.0,Calm,Calm,-,N/A,,Scattered Clouds,0,2013-02-25 02:47:00
7:55 PM,50.0,12.2,22,30.03,10.0,Calm,Calm,-,N/A,,Clear,0,2013-02-25 02:55:00
8:15 PM,46.4,17.6,32,30.03,10.0,Calm,Calm,-,N/A,,Clear,0,2013-02-25 03:15:00
8:35 PM,44.6,17.6,34,30.04,10.0,Calm,Calm,-,N/A,,Clear,0,2013-02-25 03:35:00
8:47 PM,44.6,19.4,37,30.04,20.0,SSW,3.5,-,N/A,,Scattered Clouds,210,2013-02-25 03:47:00
8:55 PM,42.8,21.2,42,30.05,10.0,WSW,4.6,-,N/A,,Clear,240,2013-02-25 03:55:00
9:15 PM,42.8,21.2,42,30.06,10.0,Calm,Calm,-,N/A,,Clear,0,2013-02-25 04:15:00
9:35 PM,42.8,17.6,36,30.07,10.0,Calm,Calm,-,N/A,,Clear,0,2013-02-25 04:35:00
9:55 PM,44.6,14.0,29,30.08,10.0,Calm,Calm,-,N/A,,Clear,0,2013-02-25 04:55:00
10:15 PM,46.4,17.6,32,30.08,10.0,Calm,Calm,-,N/A,,Clear,0,2013-02-25 05:15:00
10:35 PM,41.0,23.0,49,30.09,10.0,East,6.9,-,N/A,,Clear,100,2013-02-25 05:35:00
10:55 PM,41.0,23.0,49,30.10,10.0,East,5.8,-,N/A,,Clear,90,2013-02-25 05:55:00
11:15 PM,41.0,21.2,45,30.11,10.0,East,8.1,-,N/A,,Clear,100,2013-02-25 06:15:00
11:35 PM,41.0,23.0,49,30.12,10.0,South,3.5,-,N/A,,Clear,170,2013-02-25 06:35:00
11:55 PM,37.4,23.0,56,30.11,10.0,ESE,4.6,-,N/A,,Clear,110,2013-02-25 06:55:00